Lid_Strength_Index
10 8 7 6 5 4 4 4 3 2 1 1 1 1 1 1 2 4 6 8 8 9 8 11 9 8 8 9 9 9 9 9
10 9 7 6 6 5 4 4 4 4 4 1 1 1 2 3 6 7 9 10 9 9 10 11 10 9 9 9 10 10 10 10
9 10 8 7 6 5 5 4 4 4 3 3 2 1 2 2 5 7 10 10 12 10 11 11 10 10 10 11 10 10 11 11
9 9 9 8 6 5 5 5 5 5 4 4 4 3 3 4 6 7 11 11 13 11 11 12 10 10 10 11 11 11 11 11
9 9 9 9 8 7 6 5 6 6 5 5 5 5 5 7 8 9 11 12 14 12 12 12 11 11 11 11 11 12 12 12
8 8 9 9 9 9 7 7 7 7 6 6 7 7 9 10 11 12 12 13 13 14 13 12 11 12 12 11 12 12 13 13
8 8 9 9 9 9 9 8 8 8 8 9 10 11 12 12 13 14 14 14 15 14 13 12 13 11 11 11 13 13 14 14
8 8 8 8 9 9 9 9 9 9 10 11 11 12 12 13 14 15 15 14 15 13 13 13 12 12 12 13 13 14 14 14
7 7 7 7 8 7 8 9 10 10 12 12 12 12 13 13 14 15 15 15 14 14 13 12 12 11 12 13 13 13 14 14
7 7 7 7 8 9 10 10 10 10 11 12 12 13 14 14 14 14 15 14 14 14 13 13 12 11 12 13 14 14 15 14
8 7 7 8 9 10 11 11 11 10 11 12 12 12 13 13 14 14 14 14 14 14 14 14 13 12 13 14 14 15 15 14
8 8 8 9 10 11 11 11 10 11 11 12 12 12 12 13 14 14 14 14 14 14 14 14 13 13 12 13 14 14 14 14
10 10 10 10 10 11 11 11 12 12 12 13 13 12 13 13 14 13 14 14 15 15 15 15 14 13 12 12 13 13 13 14
13 12 11 13 11 12 11 12 13 13 13 14 14 13 13 14 14 14 14 14 15 15 15 16 15 14 13 12 11 12 13 13
13 13 13 13 13 12 12 13 13 13 13 13 14 14 14 13 14 14 14 14 15 15 15 15 16 15 14 13 12 13 13 13
14 14 14 14 13 13 13 13 13 13 13 13 13 13 13 13 13 13 13 13 14 14 15 15 16 15 14 14 14 13 13 13
14 14 14 14 15 14 15 13 13 13 14 13 13 14 13 14 14 13 13 13 13 13 13 14 13 13 14 14 13 13 13 15
16 16 15 15 15 15 15 15 14 13 14 14 14 14 14 14 14 16 16 14 13 14 13 13 14 13 13 13 13 13 13 15
17 17 17 17 16 16 15 14 15 14 14 13 14 14 14 14 14 14 15 16 16 14 14 13 13 13 13 12 13 14 13 14
18 19 20 19 18 18 18 16 14 13 13 14 13 13 14 14 14 14 15 15 15 15 14 14 13 12 12 12 14 15 15 17